Regional Weather Roundup
Issued by NWS

Home | Current Version | Previous Version | Graphics & Text | Print | Product List | Glossary On
Versions: 1 2 3 4 5 6 7 8 9 10 11 12 13 14 15 16 17 18 19 20 21 22 23 24 25 26 27 28 29 30 31 32 33 34 35 36 37 38 39 40 41 42 43 44 45 46 47 48
000
ASUS45 KCYS 060910
RWRWY

WYOMING REGIONAL WEATHER ROUNDUP
NATIONAL WEATHER SERVICE CHEYENNE WY
200 AM MST SAT FEB 06 2016

NOTE:  "FAIR" INDICATES FEW OR NO CLOUDS BELOW 12,000 FEET
WITH NO SIGNIFICANT WEATHER AND/OR OBSTRUCTIONS TO VISIBILITY.

WYZ001-061000-
YELLOWSTONE NATIONAL PARK

CITY           SKY/WX    TMP DP  RH WIND       PRES   REMARKS
LK YELLOWSTONE   N/A     20  16  84 VRB5      30.33F WCI  13
W YELLOWSTONE  NOT AVBL

$$
WYZ002>013-054>058-071-098>099-061000-
NORTHERN WYOMING

CITY           SKY/WX    TMP DP  RH WIND       PRES   REMARKS
JACKSON        CLOUDY    16  16 100 NE6       30.39S WCI   7
CODY           FAIR      37  16  41 SW18G33   30.14F WCI  27
GREYBULL       FAIR      19  14  81 CALM      30.22R
WORLAND        FAIR      16  12  84 S7        30.21S WCI   6
SHERIDAN       FAIR      20  13  74 CALM      30.06S
BUFFALO        FAIR      38  13  35 S6        30.06F WCI  33
GILLETTE       FAIR      29  15  56 SW18      30.07F WCI  16
HULETT         FAIR      30  14  51 SW14      30.09R WCI  20
NEWCASTLE      FAIR      18  12  79 CALM      30.15S

$$
WYZ014>020-022>026-101>103-061000-
CENTRAL WYOMING

CITY           SKY/WX    TMP DP  RH WIND       PRES   REMARKS
BIG PINEY      FAIR       7   3  84 SW6       30.36F WCI  -3
PINEDALE       FAIR      12   9  85 NW5       30.35S WCI   4
DUBOIS         FAIR      23  14  68 N20       30.26F WCI   8
LANDER         FAIR      18   9  68 CALM      30.20S
RIVERTON       FAIR      21  10  62 S5        30.21F WCI  15
CASPER         FAIR      23  16  74 SW31G44   30.20F WCI   5
DOUGLAS        FAIR      17  11  77 CALM        N/A

$$
WYZ021-027>030-104>119-061000-
SOUTHERN WYOMING

CITY           SKY/WX    TMP DP  RH WIND       PRES   REMARKS
EVANSTON       FAIR      15  12  88 SW14      30.43  WCI   0
FORT BRIDGER   SUNNY     19  18  93 W15       30.43S WCI   5
ROCK SPRINGS   FAIR      21  15  78 W20       30.36F WCI   6
DIXON          PTSUNNY   11   7  82 CALM      30.47F
RAWLINS        CLOUDY    22  15  75 SW8G18    30.33R WCI  12
SARATOGA       FAIR      10   5  79 SE12      30.37F WCI  -4
LARAMIE        FAIR      19   9  65 SW24      30.23S WCI   2
CHEYENNE       FAIR      27  12  53 W22       30.18F WCI  13
TORRINGTON     FAIR      30  16  56 NW10      30.19S WCI  21
PINE BLUFFS    FAIR      23  12  63 W6        30.22R WCI  16

$$



USA.gov is the U.S. government's official web portal to all federal, state and local government web resources and services.